Temperature
14 14 13 13 13 13 13 13 13 13 13 13 13 13 13 13 14 14 14 14 14 14 14 14 14 14 14 14 14 14 13 14 13 13 13 13 13 13 13 13 13 13 13
13 13 13 13 13 13 13 13 13 13 13 13 13 13 13 13 13 13 13 13 14 14 14 14 14 14 14 14 14 13 13 13 13 13 13 13 13 13 13 13 13 12 12
13 13 13 12 12 12 12 13 13 13 13 13 13 13 13 13 13 13 13 13 13 13 13 13 13 13 13 13 13 13 13 13 13 13 13 13 13 13 13 12 12 12 12
12 12 12 12 12 12 12 12 12 12 12 12 12 13 13 13 13 13 13 13 13 13 13 13 13 13 13 13 13 13 13 13 13 13 13 13 13 12 12 12 12 12 12
11 11 11 12 12 12 12 12 12 12 12 12 12 12 12 12 12 13 13 13 13 13 13 13 13 13 13 13 13 13 13 12 12 12 12 12 12 12 12 12 12 12 12
11 11 11 11 11 11 11 11 11 11 11 11 11 11 12 12 12 12 12 12 12 12 12 12 12 12 12 12 12 12 12 12 12 12 12 12 12 12 12 12 12 12 11
11 11 11 11 11 10 10 10 10 11 11 11 11 11 11 11 12 12 12 12 12 12 12 12 12 12 12 12 12 12 12 12 12 12 12 12 12 12 11 11 11 11 11
10 10 10 10 10 10 10 10 10 10 10 10 10 10 10 10 11 11 11 11 11 11 11 11 11 11 11 11 11 11 11 11 11 11 11 11 11 11 11 11 11 11 10
10 10 10 10 10 10 10 10 10 10 10 10 9 9 9 9 10 10 11 11 11 11 11 11 11 11 11 11 11 11 11 11 11 11 11 11 11 11 10 10 10 10 10
9 10 9 9 9 9 9 9 9 9 9 9 9 9 9 9 9 9 10 10 10 10 10 10 10 10 10 10 10 10 10 10 10 10 10 10 10 10 10 10 10 10 10
9 9 9 9 9 9 9 9 9 9 9 9 9 8 8 8 8 8 8 9 9 9 9 9 9 10 10 10 9 10 10 10 10 10 10 9 9 9 9 9 9 9 9
8 8 8 8 8 8 8 8 8 8 8 8 8 8 8 8 8 8 8 8 8 9 9 9 9 9 9 9 9 9 9 9 9 9 9 9 9 9 9 9 9 9 9
8 8 8 8 8 8 8 8 8 8 8 8 8 8 8 7 8 7 7 7 7 8 8 8 8 8 8 8 8 8 8 8 8 8 8 8 8 8 8 8 8 8 8
7 7 7 7 7 7 7 7 7 7 7 7 7 7 7 7 7 7 7 7 7 7 7 7 7 7 8 8 8 7 7 8 8 8 7 7 7 8 8 7 7 7 7
7 7 7 7 7 7 7 7 7 7 7 6 6 6 7 7 7 7 7 6 6 6 6 6 6 7 7 7 7 7 7 7 7 7 7 7 7 7 7 7 7 7 7
7 6 6 6 6 6 6 6 6 6 6 6 6 6 6 6 6 6 6 6 6 6 5 6 6 6 6 6 6 6 6 6 6 6 6 6 6 6 6 6 6 6 6
6 6 6 6 6 6 6 6 6 6 6 6 6 5 5 6 5 5 5 5 5 5 5 5 5 5 5 5 5 5 5 6 6 6 5 5 5 5 5 5 5 5 5
6 6 6 6 6 6 6 6 5 5 5 5 5 5 5 5 5 5 5 5 5 5 4 4 5 4 4 4 5 5 5 5 5 5 5 5 5 5 4 4 5 4 4
6 5 5 5 5 5 5 5 5 5 5 5 5 5 5 4 4 4 4 4 4 4 4 4 4 4 4 4 4 4 4 4 4 4 4 4 4 4 4 4 4 4 3
5 5 5 5 5 5 5 5 5 5 5 4 4 4 4 4 4 4 4 4 4 4 3 3 3 3 3 3 3 3 3 3 3 3 3 3 3 3 3 3 3 3 3
5 5 5 5 5 5 5 5 4 4 4 4 4 4 3 3 3 3 3 3 3 3 3 3 2 2 2 2 2 2 2 2 3 3 3 3 2 2 3 2 2 2 2
5 5 5 5 4 4 4 4 4 4 3 3 3 3 3 3 3 3 3 2 2 2 2 2 2 1 1 1 1 1 1 1 1 1 1 2 1 2 2 2 1 1 1
5 5 4 4 4 4 4 4 3 3 3 3 3 3 3 2 2 2 2 2 2 2 1 1 1 1 0 0 -0 0 0 -0 -0 0 0 1 1 1 1 1 1 0 0
4 4 4 4 4 4 4 3 3 3 3 3 2 2 2 2 2 2 2 1 1 1 1 1 0 0 -0 -0 -1 -1 -1 -1 -0 -0 -1 -1 -0 -0 0 0 0 -0 -0
4 4 4 4 3 3 3 3 3 3 2 2 2 2 2 2 1 1 1 1 1 1 0 0 -0 -0 -1 -1 -1 -1 -1 -2 -1 -1 -1 -2 -1 -1 -1 -0 -0 -1 -1
4 3 3 3 3 3 3 3 2 2 2 2 2 2 1 1 1 1 1 1 0 0 -0 -0 -0 -1 -1 -1 -1 -2 -2 -2 -3 -3 -2 -3 -3 -3 -3 -2 -1 -1 -2
Wind_Speed
2 2 2 2 3 4 4 4 5 6 6 7 7 7 6 8 8 7 7 12 14 13 13 13 13 13 12 12 11 11 11 10 9 9 9 9 9 9 9 9 9 9 8
3 2 2 2 3 4 4 4 5 4 4 4 5 5 6 6 6 7 7 9 13 14 14 14 14 14 13 13 12 12 11 11 10 10 10 10 10 10 10 10 10 10 9
3 3 2 2 3 4 4 4 4 4 4 4 5 5 4 5 5 5 6 7 9 13 14 14 14 14 14 14 13 13 12 12 11 11 11 11 11 11 11 11 11 11 11
5 3 3 3 3 3 2 3 3 3 4 3 3 4 4 3 4 5 5 6 7 8 11 14 15 14 14 14 14 14 13 13 13 13 13 12 12 12 12 12 12 12 12
6 5 3 3 4 2 2 3 3 2 3 4 4 4 4 4 4 5 5 6 6 7 8 12 15 16 15 14 14 14 14 14 13 14 14 14 14 13 13 13 13 13 13
6 5 4 4 4 3 3 3 3 3 3 3 4 5 4 5 5 5 6 5 5 7 7 8 9 12 14 14 14 14 14 14 14 14 15 15 15 15 14 14 14 14 14
6 5 4 4 3 3 3 4 3 3 3 2 3 4 5 5 5 5 4 3 4 5 6 7 6 7 8 12 13 13 14 14 15 15 15 15 15 15 15 15 14 14 15
5 4 4 4 4 4 4 4 3 2 3 2 2 3 3 4 3 4 3 3 4 3 4 5 5 5 5 5 7 11 12 14 15 15 15 15 15 15 15 15 15 15 15
4 4 4 4 4 3 3 3 3 3 3 3 2 2 2 3 3 3 3 3 2 2 2 3 3 4 4 3 3 5 9 11 13 14 15 15 15 15 15 16 16 15 15
4 4 4 4 3 3 4 4 3 3 3 3 3 3 3 2 2 3 3 3 3 3 3 2 1 0 0 1 2 3 6 8 11 13 14 15 15 15 15 15 15 14 14
3 4 4 4 3 3 3 4 4 3 2 2 2 2 3 3 3 3 4 4 3 2 2 1 0 0 1 1 2 4 6 7 10 11 13 14 14 14 15 14 14 14 13
2 3 4 4 3 3 3 4 3 3 2 2 2 2 2 2 2 3 4 4 4 3 3 2 1 1 0 1 3 5 6 7 9 11 12 12 13 12 13 13 13 13 12
3 3 3 3 3 3 3 3 3 3 3 2 2 2 2 2 2 3 3 4 4 3 2 1 1 0 1 2 3 5 6 7 9 11 12 11 11 11 11 11 12 12 12
2 3 4 4 3 3 3 3 2 2 2 2 2 2 2 2 2 2 2 3 4 3 2 2 1 1 1 2 4 6 7 8 9 10 11 11 11 11 11 12 12 13 13
3 3 4 4 3 3 3 2 1 2 2 2 2 2 2 2 2 2 2 2 3 4 4 2 1 2 3 3 5 5 6 8 9 9 10 11 11 12 11 12 12 12 12
3 3 4 3 3 3 3 2 2 2 1 2 2 2 2 2 2 1 2 2 2 4 5 2 2 2 3 4 6 6 7 9 9 10 11 11 12 12 12 12 12 13 13
3 3 4 3 3 3 2 2 2 2 2 2 2 2 2 2 2 2 2 2 2 2 5 4 2 3 3 4 5 6 7 7 8 10 11 11 12 12 12 12 12 12 12
3 3 3 3 3 2 2 1 2 2 2 2 3 2 3 2 2 2 2 2 3 2 3 5 4 3 4 4 4 5 6 7 7 10 11 11 11 12 12 12 11 11 11
3 3 3 3 3 3 2 2 2 2 3 2 2 2 2 2 2 2 2 3 3 3 2 4 5 3 3 3 4 4 5 5 7 9 9 10 11 12 12 11 11 10 11
3 3 3 3 3 3 2 2 2 2 2 2 2 2 2 2 2 2 2 3 3 3 3 3 4 4 3 3 3 4 5 4 6 6 8 10 11 12 12 12 11 11 11
4 3 3 3 3 2 2 2 2 2 2 2 2 1 1 1 1 2 2 2 3 2 3 3 3 4 3 3 3 4 5 6 6 4 4 6 6 6 8 10 10 10 11
4 3 3 3 3 3 3 3 2 2 2 2 2 2 2 1 1 2 2 3 3 3 3 3 3 4 4 4 4 4 5 5 5 3 5 7 5 5 5 7 10 11 11
4 4 4 3 3 4 4 3 3 2 2 2 2 2 2 1 1 1 2 3 3 4 3 3 4 4 5 4 5 5 5 6 6 5 6 6 4 5 5 10 13 12 11
4 4 4 4 4 4 5 4 4 3 3 3 2 1 1 1 1 1 1 1 1 2 2 2 2 3 4 4 4 5 6 6 6 4 3 5 5 5 7 7 11 11 12
5 5 4 5 5 5 5 5 4 2 2 3 2 1 1 1 2 2 1 1 1 2 2 2 3 4 6 7 6 3 4 4 5 4 2 3 4 5 5 5 6 10 11
5 5 4 4 5 4 5 5 5 2 3 2 2 1 2 2 2 2 1 1 2 2 2 2 3 4 4 6 7 4 3 4 4 4 2 3 3 4 4 3 3 5 8
Wind_Direction
306 302 275 261 253 254 246 233 240 242 243 249 241 240 236 232 232 219 211 205 206 211 219 225 230 234 236 238 239 240 239 240 245 247 249 253 255 255 256 261 268 269 271
313 307 293 283 274 270 264 256 254 253 248 249 253 253 254 250 236 226 217 209 210 214 220 226 233 237 239 241 240 239 239 239 243 244 246 250 254 256 256 259 264 265 266
314 311 289 286 285 286 286 282 279 278 263 260 262 261 257 262 257 246 233 214 213 218 220 227 234 236 239 241 242 241 239 238 240 241 245 249 252 255 256 259 259 261 263
327 317 297 284 296 290 291 280 274 280 277 273 272 273 267 263 266 263 255 239 219 217 220 226 230 233 238 240 243 244 243 241 240 241 244 247 250 252 255 257 258 258 261
337 333 314 315 311 302 284 285 289 285 281 277 273 270 269 265 259 263 258 247 233 226 219 222 223 228 233 237 242 246 248 247 243 241 243 246 249 251 253 255 258 260 260
344 339 321 313 314 294 287 281 279 282 274 275 285 279 268 260 255 247 249 245 235 236 235 229 220 226 228 233 241 248 252 253 251 247 246 247 250 251 252 255 257 259 260
344 337 322 313 306 283 279 284 280 283 277 291 292 292 277 261 254 246 240 239 241 239 238 236 226 218 221 230 239 248 254 258 258 256 252 252 252 252 253 256 258 258 260
337 330 329 315 310 299 293 285 286 287 279 265 259 289 288 287 277 264 249 238 246 248 245 242 235 226 217 215 230 243 255 261 263 263 261 258 256 256 257 259 260 261 263
335 336 328 318 312 309 299 289 281 267 274 266 241 231 257 262 308 279 269 267 273 272 264 254 242 233 224 226 238 250 258 263 267 269 268 266 264 261 260 261 262 262 263
338 331 322 315 309 306 301 294 289 270 266 270 270 252 256 265 278 298 296 284 282 275 272 279 288 332 287 240 281 307 289 275 273 274 275 274 272 269 267 265 264 263 266
328 335 330 318 306 304 309 308 306 297 275 264 263 275 275 282 265 254 281 292 293 288 292 273 277 279 1 314 300 315 313 295 288 286 284 283 280 277 273 272 272 269 269
312 331 329 322 317 310 302 297 296 301 291 279 273 267 262 260 268 256 262 280 279 281 292 278 263 228 299 326 311 324 319 306 301 299 292 288 289 287 284 279 279 275 273
319 324 326 313 307 306 308 305 299 297 296 282 270 266 265 269 276 268 265 276 280 279 280 290 269 165 355 356 331 323 312 312 308 301 297 297 302 301 298 295 287 286 286
304 312 316 309 309 314 313 310 306 300 301 294 293 285 268 276 285 280 270 277 284 283 272 273 316 1 8 348 331 323 316 316 312 310 304 304 306 304 303 298 295 292 291
297 311 307 308 312 318 314 313 307 294 303 300 292 298 292 290 288 296 294 275 259 274 277 274 294 323 338 328 323 318 315 317 314 311 308 308 304 301 298 295 294 296 295
295 298 299 299 303 306 309 311 298 285 285 287 280 281 281 281 289 290 290 291 273 261 269 275 277 300 316 326 324 321 311 313 311 308 306 304 301 300 298 294 293 293 293
288 287 291 290 294 298 303 308 303 306 285 274 273 265 272 282 286 295 291 283 279 268 268 287 293 306 311 317 320 321 316 312 308 308 307 306 305 304 301 299 296 295 294
279 281 287 290 293 299 298 290 290 288 278 273 274 272 271 279 289 298 295 290 287 284 272 285 292 303 303 304 309 309 317 318 314 311 310 309 308 306 304 303 301 299 300
281 289 289 288 292 295 296 287 280 280 276 273 280 279 276 278 283 288 292 290 289 293 279 274 282 290 294 305 311 308 310 308 316 314 316 315 313 311 308 308 308 306 304
255 264 271 277 281 289 293 292 285 285 287 290 293 284 281 274 276 285 289 294 297 296 290 281 285 296 299 308 316 311 312 311 311 316 319 317 315 314 311 311 312 311 308
245 245 254 264 269 273 278 286 282 279 280 289 294 295 290 314 333 310 303 309 306 295 294 294 293 300 303 319 315 309 307 312 305 311 316 312 310 303 306 308 306 307 310
238 238 244 251 255 259 268 270 278 278 267 260 269 277 270 253 296 316 317 315 305 287 283 284 289 294 303 310 310 309 309 314 304 316 320 308 308 304 304 306 305 306 307
232 233 236 240 247 244 243 252 260 269 266 258 254 261 279 282 294 284 305 316 323 321 301 275 277 284 292 301 306 305 308 304 291 296 310 298 303 301 306 309 305 302 305
227 231 231 227 233 238 233 242 255 249 255 260 251 239 242 280 286 271 272 304 319 326 320 310 279 290 299 301 293 294 296 300 292 295 300 290 299 299 306 305 305 307 309
227 228 228 222 226 238 228 235 243 234 240 252 245 236 227 218 270 277 271 281 303 314 332 333 333 326 327 328 325 319 315 313 304 303 309 292 299 309 299 288 299 309 313
226 225 230 223 221 229 229 230 230 218 228 238 233 228 237 231 244 269 254 242 275 291 308 320 334 337 336 336 341 336 311 305 307 301 325 330 309 325 311 285 297 312 313
Height
1525 1525 1525 1525 1525 1526 1526 1526 1526 1527 1527 1527 1528 1529 1529 1529 1529 1530 1530 1530 1530 1530 1531 1530 1531 1531 1531 1531 1531 1531 1531 1531 1531 1531 1531 1531 1531 1531 1531 1531 1531 1531 1530
1522 1522 1522 1522 1522 1523 1523 1523 1523 1524 1524 1524 1525 1525 1525 1526 1525 1526 1526 1526 1526 1526 1527 1527 1527 1527 1527 1527 1527 1527 1527 1527 1528 1528 1528 1528 1528 1528 1528 1528 1528 1528 1527
1519 1519 1519 1519 1519 1519 1520 1520 1520 1520 1520 1520 1521 1521 1521 1522 1522 1522 1522 1522 1522 1522 1522 1522 1522 1522 1523 1523 1523 1523 1523 1523 1524 1524 1524 1524 1524 1524 1524 1524 1524 1524 1524
1516 1516 1516 1516 1516 1516 1516 1516 1516 1516 1516 1516 1516 1516 1516 1517 1517 1517 1517 1518 1517 1517 1517 1518 1518 1518 1518 1518 1518 1519 1519 1519 1519 1519 1520 1520 1520 1520 1520 1520 1520 1520 1520
1513 1513 1513 1513 1513 1513 1513 1513 1513 1513 1512 1512 1512 1512 1512 1512 1512 1512 1512 1513 1513 1513 1513 1513 1513 1513 1513 1513 1514 1514 1514 1514 1514 1515 1515 1515 1516 1516 1515 1515 1515 1515 1515
1510 1510 1510 1510 1509 1509 1509 1509 1509 1509 1509 1508 1507 1507 1507 1507 1507 1507 1507 1507 1508 1508 1508 1508 1508 1508 1508 1508 1509 1509 1509 1509 1509 1510 1510 1510 1510 1510 1511 1511 1511 1510 1510
1507 1507 1506 1506 1506 1506 1506 1506 1506 1506 1505 1505 1504 1502 1502 1502 1502 1502 1502 1502 1503 1503 1503 1503 1503 1503 1503 1503 1503 1504 1504 1504 1504 1504 1504 1505 1505 1505 1505 1505 1505 1505 1505
1505 1504 1503 1503 1503 1502 1502 1502 1502 1502 1501 1502 1502 1500 1498 1497 1497 1497 1498 1497 1498 1498 1498 1498 1498 1498 1498 1498 1498 1498 1499 1499 1498 1498 1499 1499 1499 1499 1499 1499 1499 1499 1499
1502 1501 1501 1500 1499 1499 1498 1498 1498 1498 1498 1498 1498 1499 1497 1494 1493 1493 1493 1493 1493 1493 1493 1493 1493 1492 1492 1492 1492 1492 1493 1493 1493 1492 1492 1493 1493 1493 1493 1493 1493 1493 1493
1499 1498 1498 1497 1496 1495 1495 1495 1495 1494 1494 1494 1494 1494 1495 1493 1492 1489 1489 1489 1489 1488 1489 1488 1488 1487 1487 1487 1487 1486 1487 1487 1487 1486 1486 1486 1487 1486 1487 1487 1487 1486 1487
1496 1495 1494 1493 1492 1492 1491 1491 1491 1491 1490 1490 1490 1490 1490 1490 1489 1488 1486 1485 1485 1484 1484 1484 1483 1482 1482 1482 1481 1481 1481 1481 1481 1481 1480 1480 1480 1480 1480 1479 1479 1479 1480
1493 1492 1491 1490 1489 1488 1487 1487 1487 1487 1486 1486 1486 1486 1486 1486 1485 1485 1483 1481 1481 1480 1480 1479 1478 1478 1478 1477 1477 1477 1476 1476 1475 1475 1474 1474 1473 1473 1473 1473 1472 1472 1472
1490 1489 1488 1486 1485 1485 1484 1483 1483 1483 1482 1482 1482 1482 1482 1482 1482 1481 1480 1478 1477 1476 1475 1474 1474 1474 1474 1473 1473 1472 1472 1471 1470 1469 1469 1468 1467 1467 1466 1466 1466 1465 1465
1487 1486 1484 1483 1482 1481 1480 1479 1479 1479 1478 1478 1478 1478 1477 1477 1477 1477 1476 1475 1473 1472 1471 1471 1470 1470 1469 1469 1468 1467 1466 1466 1465 1464 1463 1462 1461 1461 1460 1460 1460 1459 1458
1484 1482 1481 1480 1479 1477 1476 1476 1475 1475 1474 1474 1474 1474 1473 1473 1473 1472 1472 1472 1472 1469 1467 1466 1466 1465 1465 1464 1463 1462 1461 1460 1459 1458 1457 1456 1455 1455 1454 1454 1453 1452 1451
1480 1479 1478 1477 1476 1474 1473 1472 1472 1471 1471 1470 1470 1470 1469 1469 1468 1468 1468 1467 1467 1466 1464 1462 1462 1461 1461 1459 1459 1457 1456 1455 1454 1453 1452 1451 1449 1449 1448 1447 1446 1445 1444
1477 1476 1475 1474 1473 1471 1470 1470 1469 1468 1467 1467 1466 1466 1465 1465 1465 1464 1464 1463 1463 1462 1460 1457 1458 1457 1456 1455 1454 1453 1452 1450 1449 1448 1447 1445 1444 1443 1442 1441 1440 1439 1438
1474 1472 1472 1471 1469 1468 1467 1466 1465 1464 1464 1463 1463 1462 1461 1461 1461 1460 1460 1459 1458 1457 1456 1454 1453 1452 1451 1450 1449 1448 1446 1445 1444 1442 1441 1440 1438 1437 1436 1435 1433 1432 1431
1470 1469 1468 1467 1466 1465 1464 1463 1462 1461 1460 1459 1459 1458 1457 1457 1456 1456 1455 1454 1454 1453 1452 1450 1448 1448 1447 1446 1444 1443 1442 1440 1439 1437 1436 1434 1433 1431 1430 1429 1427 1426 1425
1466 1465 1464 1463 1462 1461 1460 1459 1458 1457 1457 1456 1455 1454 1454 1453 1452 1452 1451 1450 1449 1448 1447 1446 1444 1443 1442 1441 1440 1438 1436 1435 1434 1432 1430 1429 1427 1426 1424 1423 1422 1420 1419
1462 1461 1460 1459 1458 1457 1456 1455 1455 1454 1453 1452 1451 1450 1450 1449 1449 1448 1448 1447 1445 1444 1443 1442 1440 1439 1438 1436 1435 1433 1431 1430 1428 1427 1425 1423 1421 1420 1419 1417 1416 1414 1413
1458 1457 1456 1455 1454 1453 1453 1452 1451 1450 1449 1448 1447 1446 1446 1445 1445 1444 1444 1443 1442 1441 1439 1438 1436 1435 1433 1433 1431 1430 1428 1425 1422 1422 1420 1418 1417 1414 1413 1412 1410 1409 1407
1454 1453 1452 1451 1450 1450 1449 1448 1447 1447 1446 1445 1444 1443 1442 1442 1441 1440 1440 1439 1438 1437 1436 1435 1433 1431 1430 1429 1428 1426 1424 1422 1419 1417 1415 1412 1411 1409 1408 1406 1405 1404 1402
1449 1448 1448 1447 1446 1446 1445 1445 1444 1443 1442 1441 1441 1440 1439 1438 1438 1437 1436 1435 1434 1433 1432 1431 1430 1428 1427 1425 1424 1422 1420 1418 1416 1414 1412 1408 1405 1404 1402 1401 1400 1398 1396
1444 1444 1443 1442 1442 1442 1441 1441 1440 1439 1439 1438 1437 1437 1436 1435 1435 1434 1433 1432 1431 1430 1429 1427 1426 1425 1423 1422 1420 1418 1416 1413 1410 1409 1408 1405 1401 1398 1396 1395 1394 1393 1391
1440 1439 1438 1438 1438 1437 1437 1437 1436 1435 1435 1434 1434 1433 1433 1432 1431 1430 1429 1428 1427 1426 1425 1424 1423 1421 1420 1418 1417 1415 1413 1411 1408 1405 1404 1401 1398 1396 1391 1389 1389 1387 1385